Location: Casilda
(33.0440°S, 61.1680°W)
Time: 04:20:02
(UTC-03:00)

ISS - Pass Details

Date: 15 September 2017
Orbit: 401 x 407 km, 51.6° (Epoch: 23 September)

Event Time Altitude Azimuth Distance (km) Brightness Sun altitude
Rises 19:42:32 0° 227° (SW) 2,342 0.9 -10.4°
Reaches altitude 10° 19:44:38 10° 228° (SW) 1,476 -0.2 -10.9°
Maximum altitude 19:47:56 82° 315° (NW) 415 -3.8 -11.6°
Enters shadow 19:50:49 13° 42° (NE) 1,299 -1.7 -12.2°
